Voltar ao catálogo

CZ-6A DEB

AtivoPO
NORAD 60807·DEBRIS·🇨🇳 China

Lançado Aug 6, 2024 de Taiyuan Satellite Launch Center

Loading…

Próximas Passagens (próximas 24 horas)

TLE

AtualizadoSource: Space-Track

Época: Sep 14, 2026, 00:20 UTC

1 60807U 24140GJ  26257.01412224  .00000173  00000-0  87966-4 0  9991
2 60807  89.0036 266.8542 0088720 289.8022  69.3613 14.09638400107492

Acompanhe CZ-6A DEB em tempo real com AllMySat

Download on the App Store